TimeCDT,TemperatureF,Dew PointF,Humidity,Sea Level PressureIn,VisibilityMPH,Wind Direction,Wind SpeedMPH,Gust SpeedMPH,PrecipitationIn,Events,Conditions,WindDirDegrees,DateUTC
12:56 AM,79.0,72.0,79,30.17,10.0,ESE,6.9,-,N/A,,Mostly Cloudy,110,2013-07-17 05:56:00
1:56 AM,78.1,72.0,81,30.17,10.0,East,4.6,-,N/A,,Mostly Cloudy,100,2013-07-17 06:56:00
2:56 AM,77.0,72.0,84,30.15,10.0,ESE,4.6,-,N/A,,Mostly Cloudy,110,2013-07-17 07:56:00
3:56 AM,75.9,72.0,87,30.16,10.0,East,6.9,-,N/A,,Mostly Cloudy,100,2013-07-17 08:56:00
4:56 AM,75.0,72.0,90,30.16,10.0,East,5.8,-,N/A,,Mostly Cloudy,90,2013-07-17 09:56:00
5:56 AM,75.0,72.0,90,30.18,10.0,East,5.8,-,N/A,,Mostly Cloudy,100,2013-07-17 10:56:00
6:56 AM,75.9,72.0,87,30.19,10.0,East,4.6,-,N/A,,Mostly Cloudy,90,2013-07-17 11:56:00
7:56 AM,78.1,73.0,84,30.21,10.0,ESE,6.9,-,N/A,,Overcast,110,2013-07-17 12:56:00
8:14 AM,78.8,73.4,83,30.22,10.0,SE,5.8,-,N/A,,Mostly Cloudy,130,2013-07-17 13:14:00
8:56 AM,80.1,73.0,79,30.22,10.0,SE,8.1,-,N/A,,Mostly Cloudy,140,2013-07-17 13:56:00
9:03 AM,80.6,73.4,79,30.24,10.0,SSE,4.6,-,N/A,,Mostly Cloudy,160,2013-07-17 14:03:00
9:25 AM,80.6,73.4,79,30.24,10.0,SE,10.4,-,N/A,,Mostly Cloudy,140,2013-07-17 14:25:00
9:56 AM,82.9,73.9,74,30.23,10.0,SSE,8.1,-,N/A,,Mostly Cloudy,150,2013-07-17 14:56:00
10:18 AM,82.4,73.4,74,30.24,10.0,ESE,5.8,-,N/A,,Mostly Cloudy,120,2013-07-17 15:18:00
10:56 AM,84.9,73.0,67,30.24,10.0,SE,10.4,16.1,N/A,,Mostly Cloudy,130,2013-07-17 15:56:00
11:56 AM,88.0,73.0,61,30.23,10.0,SE,9.2,-,N/A,,Mostly Cloudy,130,2013-07-17 16:56:00
12:56 PM,90.0,70.0,52,30.22,10.0,ESE,9.2,-,N/A,,Mostly Cloudy,120,2013-07-17 17:56:00
1:56 PM,91.9,71.1,50,30.19,10.0,Variable,6.9,-,N/A,,Mostly Cloudy,0,2013-07-17 18:56:00
2:56 PM,91.9,69.1,47,30.17,10.0,SE,8.1,18.4,N/A,,Mostly Cloudy,140,2013-07-17 19:56:00
3:56 PM,91.9,68.0,45,30.15,10.0,SE,10.4,-,N/A,,Scattered Clouds,130,2013-07-17 20:56:00
4:56 PM,93.0,68.0,44,30.13,10.0,SE,10.4,-,N/A,,Scattered Clouds,140,2013-07-17 21:56:00
5:56 PM,91.9,68.0,45,30.12,10.0,ESE,8.1,-,N/A,,Scattered Clouds,120,2013-07-17 22:56:00
6:56 PM,91.9,68.0,45,30.12,10.0,ESE,6.9,-,N/A,,Scattered Clouds,120,2013-07-17 23:56:00
7:56 PM,89.1,69.1,52,30.12,10.0,ESE,4.6,-,N/A,,Scattered Clouds,120,2013-07-18 00:56:00
8:56 PM,86.0,68.0,55,30.13,10.0,Calm,Calm,-,N/A,,Scattered Clouds,0,2013-07-18 01:56:00
9:56 PM,80.1,70.0,71,30.15,10.0,East,4.6,-,N/A,,Partly Cloudy,80,2013-07-18 02:56:00
10:56 PM,80.1,70.0,71,30.15,10.0,Calm,Calm,-,N/A,,Partly Cloudy,0,2013-07-18 03:56:00
11:56 PM,79.0,70.0,74,30.15,10.0,Calm,Calm,-,N/A,,Partly Cloudy,0,2013-07-18 04:56:00